Weather History for KMJQ - December, 2012

Change the Weather History Date:

Monday, December 3, 2012

  Actual Average Record
Temperature  
Mean Temperature 44 °F -  
Max Temperature 55 °F 33 °F 64 °F (1998)
Min Temperature 33 °F 19 °F 1 °F (1996)
Degree Days  
Heating Degree Days 21    
Moisture  
Dew Point 37 °F    
Average Humidity 70    
Maximum Humidity 94    
Minimum Humidity 41    
Precipitation  
Precipitation 0.00 in - - ()
Sea Level Pressure  
Sea Level Pressure 29.75 in    
Wind  
Wind Speed 15 mph (WSW)    
Max Wind Speed 31 mph    
Max Gust Speed 38 mph    
Visibility 6 miles    
Events Fog    
Averages and records for this station are not official NWS values.
T = Trace of Precipitation, MM = Missing Value Source: NWS Daily Summary

Daily Weather History Graph

Daily Weather History Graph

Search for Another Location

Airport or City:

Trip Planner

Search our weather history database for the weather conditions in past years. The results will help you decide how hot, cold, wet, or windy it might be!

Date:

Astronomy

Dec. 03, 2012 Rise Set
Actual Time 7:36 AM CST 4:43 PM CST
Civil Twilight 7:03 AM CST 5:15 PM CST
Nautical Twilight 6:28 AM CST 5:51 PM CST
Astronomical Twilight 5:53 AM CST 6:26 PM CST
Moon 9:36 PM CST (12/3) 10:55 AM CST (12/3)
Length of Visible Light 10h 12m
Length of Day
9h 07m
Waning Gibbous, 78% of the Moon is Illuminated
Dec 3
Waning Gibbous
Dec 6
Last Quarter
Dec 13
New
Dec 19
First Quarter
Dec 28
Full

Hourly Weather History & Observations

Time (CST) Temp. Windchill Dew Point Humidity Pressure Visibility Wind Dir Wind Speed Gust Speed Precip Events Conditions
12:13 AM 42.8 °F 35.8 °F 39.2 °F 87% 29.75 in 3.0 mi South 13.8 mph 18.4 mph N/A   Clear
12:33 AM 42.8 °F 35.8 °F 41.0 °F 93% 29.74 in 3.0 mi South 13.8 mph - N/A   Scattered Clouds
12:53 AM 42.8 °F 35.8 °F 41.0 °F 93% 29.73 in 3.0 mi South 13.8 mph 20.7 mph N/A   Scattered Clouds
1:13 AM 42.8 °F 36.6 °F 41.0 °F 93% 29.72 in 3.0 mi South 11.5 mph - N/A   Scattered Clouds
1:33 AM 42.8 °F 35.8 °F 41.0 °F 93% 29.71 in 4.0 mi SSE 13.8 mph 19.6 mph N/A   Scattered Clouds
1:53 AM 44.6 °F 38.8 °F 41.0 °F 87% 29.70 in 3.0 mi SSE 11.5 mph 18.4 mph N/A   Overcast
2:13 AM 46.4 °F 40.1 °F 42.8 °F 87% 29.70 in 2.5 mi South 15.0 mph 20.7 mph N/A   Overcast
2:33 AM 46.4 °F 39.8 °F 44.6 °F 93% 29.70 in 1.8 mi South 16.1 mph 20.7 mph N/A   Overcast
2:53 AM 46.4 °F 40.7 °F 44.6 °F 93% 29.68 in 0.8 mi SSE 12.7 mph - N/A   Overcast
3:13 AM 46.4 °F 40.1 °F 44.6 °F 93% 29.67 in 0.5 mi South 15.0 mph 21.9 mph N/A Fog Fog
3:33 AM 46.4 °F 40.1 °F 44.6 °F 93% 29.66 in 0.5 mi South 15.0 mph - N/A Fog Fog
3:53 AM 46.4 °F 39.5 °F 44.6 °F 93% 29.64 in 0.5 mi SSE 17.3 mph 21.9 mph N/A Fog Fog
4:13 AM 46.4 °F 39.8 °F 44.6 °F 93% 29.63 in 0.5 mi South 16.1 mph 23.0 mph N/A Fog Fog
4:33 AM 46.4 °F 39.0 °F 44.6 °F 93% 29.64 in 0.5 mi South 19.6 mph 27.6 mph N/A Fog Fog
4:53 AM 46.4 °F 39.8 °F 44.6 °F 93% 29.63 in 1.0 mi South 16.1 mph 23.0 mph N/A   Overcast
5:13 AM 46.4 °F 39.2 °F 44.6 °F 93% 29.62 in 2.0 mi South 18.4 mph 25.3 mph N/A   Overcast
5:33 AM 46.4 °F 39.0 °F 44.6 °F 93% 29.61 in 2.0 mi South 19.6 mph 24.2 mph N/A   Overcast
5:53 AM 46.4 °F 39.8 °F 44.6 °F 93% 29.59 in 1.2 mi South 16.1 mph 23.0 mph N/A   Overcast
6:13 AM 46.4 °F 39.0 °F 44.6 °F 93% 29.59 in 0.8 mi South 19.6 mph - N/A   Overcast
6:33 AM 48.2 °F - 46.4 °F 93% 29.58 in 0.8 mi South 17.3 mph 21.9 mph N/A   Overcast
6:53 AM 50.0 °F - 46.4 °F 87% 29.59 in 0.5 mi South 13.8 mph 19.6 mph N/A Fog Fog
7:13 AM 50.0 °F - 48.2 °F 94% 29.58 in 0.5 mi South 17.3 mph 23.0 mph N/A Fog Fog
7:33 AM 50.0 °F - 48.2 °F 94% 29.57 in 0.8 mi South 13.8 mph 20.7 mph N/A   Overcast
7:53 AM 51.8 °F - 50.0 °F 94% 29.59 in 0.8 mi SSW 12.7 mph 23.0 mph N/A   Overcast
8:13 AM 51.8 °F - 50.0 °F 94% 29.59 in 2.0 mi SSW 15.0 mph 20.7 mph N/A   Overcast
8:33 AM 51.8 °F - 50.0 °F 94% 29.59 in 2.5 mi SSW 16.1 mph 20.7 mph N/A   Overcast
9:13 AM 51.8 °F - 50.0 °F 94% 29.59 in 3.0 mi SSW 13.8 mph 20.7 mph N/A   Overcast
9:33 AM 51.8 °F - 50.0 °F 94% 29.60 in 4.0 mi SW 15.0 mph - N/A   Overcast
9:53 AM 51.8 °F - 50.0 °F 94% 29.60 in 4.0 mi SW 13.8 mph 23.0 mph N/A   Overcast
10:13 AM 51.8 °F - 46.4 °F 82% 29.62 in 5.0 mi WSW 17.3 mph 23.0 mph N/A   Overcast
10:33 AM 50.0 °F - 46.4 °F 87% 29.61 in 5.0 mi WSW 17.3 mph 23.0 mph N/A   Mostly Cloudy
10:54 AM 50.0 °F - 44.6 °F 82% 29.62 in 5.0 mi West 16.1 mph 24.2 mph N/A   Scattered Clouds
11:13 AM 51.8 °F - 42.8 °F 71% 29.63 in 7.0 mi West 19.6 mph 26.5 mph N/A   Clear
11:33 AM 51.8 °F - 41.0 °F 67% 29.64 in 10.0 mi WNW 21.9 mph 27.6 mph N/A   Clear
11:54 AM 51.8 °F - 39.2 °F 62% 29.64 in 10.0 mi NW 26.5 mph 34.5 mph N/A   Clear
12:13 PM 53.6 °F - 39.2 °F 58% 29.64 in 10.0 mi NW 29.9 mph 38.0 mph N/A   Clear
12:33 PM 53.6 °F - 39.2 °F 58% 29.66 in 10.0 mi NW 31.1 mph 36.8 mph N/A   Clear
12:54 PM 55.4 °F - 39.2 °F 54% 29.67 in 10.0 mi NW 26.5 mph 35.7 mph N/A   Clear
1:13 PM 55.4 °F - 37.4 °F 51% 29.68 in 10.0 mi NW 25.3 mph 32.2 mph N/A   Clear
1:33 PM 55.4 °F - 37.4 °F 51% 29.70 in 10.0 mi NW 29.9 mph 33.4 mph N/A   Scattered Clouds
1:54 PM 53.6 °F - 37.4 °F 54% 29.71 in 10.0 mi NW 23.0 mph 36.8 mph N/A   Mostly Cloudy
2:13 PM 55.4 °F - 37.4 °F 51% 29.72 in 10.0 mi NW 24.2 mph 31.1 mph N/A   Scattered Clouds
2:33 PM 53.6 °F - 35.6 °F 51% 29.74 in 10.0 mi NW 25.3 mph 33.4 mph N/A   Scattered Clouds
2:54 PM 53.6 °F - 35.6 °F 51% 29.76 in 10.0 mi NW 18.4 mph 25.3 mph N/A   Mostly Cloudy
3:13 PM 53.6 °F - 32.0 °F 44% 29.77 in 10.0 mi WNW 17.3 mph 31.1 mph N/A   Scattered Clouds
3:33 PM 53.6 °F - 30.2 °F 41% 29.78 in 10.0 mi WNW 24.2 mph 28.8 mph N/A   Clear
3:54 PM 51.8 °F - 30.2 °F 44% 29.80 in 10.0 mi WNW 13.8 mph - N/A   Clear
4:13 PM 51.8 °F - 30.2 °F 44% 29.81 in 10.0 mi WNW 13.8 mph 23.0 mph N/A   Clear
4:34 PM 50.0 °F - 30.2 °F 47% 29.83 in 10.0 mi WNW 16.1 mph 21.9 mph N/A   Clear
4:53 PM 50.0 °F - 28.4 °F 43% 29.85 in 10.0 mi WNW 11.5 mph - N/A   Clear
5:13 PM 46.4 °F 41.9 °F 28.4 °F 50% 29.86 in 10.0 mi West 9.2 mph - N/A   Clear
5:33 PM 44.6 °F 40.2 °F 28.4 °F 53% 29.87 in 10.0 mi West 8.1 mph - N/A   Clear
5:53 PM 44.6 °F 40.7 °F 28.4 °F 53% 29.88 in 10.0 mi West 6.9 mph - N/A   Clear
6:13 PM 44.6 °F 40.7 °F 28.4 °F 53% 29.90 in 10.0 mi West 6.9 mph - N/A   Clear
6:33 PM 42.8 °F 37.5 °F 26.6 °F 53% 29.91 in 10.0 mi WNW 9.2 mph - N/A   Clear
6:53 PM 44.6 °F 38.8 °F 26.6 °F 49% 29.91 in 10.0 mi West 11.5 mph 17.3 mph N/A   Clear
7:14 PM 42.8 °F 35.8 °F 24.8 °F 49% 29.92 in 10.0 mi West 13.8 mph - N/A   Clear
7:33 PM 42.8 °F 36.6 °F 24.8 °F 49% 29.92 in 10.0 mi WNW 11.5 mph - N/A   Clear
7:54 PM 42.8 °F 36.6 °F 24.8 °F 49% 29.93 in 10.0 mi West 11.5 mph - N/A   Clear
8:13 PM 42.8 °F 36.2 °F 23.0 °F 46% 29.93 in 10.0 mi WNW 12.7 mph - N/A   Clear
8:33 PM 42.8 °F 37.0 °F 23.0 °F 46% 29.95 in 10.0 mi West 10.4 mph - N/A   Clear
8:54 PM 42.8 °F 36.2 °F 23.0 °F 46% 29.95 in 10.0 mi West 12.7 mph - N/A   Clear
9:13 PM 41.0 °F 33.5 °F 23.0 °F 49% 29.95 in 10.0 mi WNW 13.8 mph - N/A   Clear
9:33 PM 41.0 °F 33.9 °F 23.0 °F 49% 29.96 in 10.0 mi West 12.7 mph - N/A   Clear
9:54 PM 37.4 °F 32.1 °F 23.0 °F 56% 29.98 in 10.0 mi West 6.9 mph - N/A   Clear
10:13 PM 37.4 °F 30.8 °F 23.0 °F 56% 29.98 in 10.0 mi West 9.2 mph - N/A   Clear
10:33 PM 37.4 °F 32.1 °F 23.0 °F 56% 29.99 in 10.0 mi WSW 6.9 mph - N/A   Clear
10:52 PM 37.4 °F 32.8 °F 23.0 °F 56% 30.00 in 10.0 mi SW 5.8 mph - N/A   Clear
11:13 PM 33.8 °F 27.0 °F 23.0 °F 65% 30.00 in 10.0 mi SW 8.1 mph - N/A   Clear
11:33 PM 35.6 °F 28.6 °F 23.0 °F 60% 30.01 in 10.0 mi SW 9.2 mph - N/A   Clear